Flag for Germany Weather past 2 weeks in Mönchengladbach, North Rhine-Westphalia, Germany

Now
84 °F

Sunny.


Feels Like: 87 °F
Forecast: 74 / 96 °F
Wind: 3 mph from North

Location: Monchengladbach Airport

Current Time: Jul 3, 2015 at 12:51:13 PM

Latest Report: Jul 3, 2015 at 12:20 PM


Visibility: 10 mi

Pressure: 30.24 "Hg

Humidity: 55%

Dew point: 66 °F

Location of MönchengladbachLocation

Historic Weather in Mönchengladbach — Graph

°F

Mönchengladbach temperature yesterday

Maximum temperature yesterday: 99 °F (at 3:50 PM)
Minimum temperature yesterday: 77 °F (at 7:50 AM)
Average temperature yesterday: 91 °F

Past Weeks' High & Low Weather Summary

 TemperatureHumidityPressure
High99 °F (Jul 2, 3:50 PM)100% (Jun 20, 7:20 AM)30.24 "Hg (Jun 20, 7:20 AM)
Low50 °F (Jun 22, 8:20 PM)29% (Jun 30, 5:50 PM)29.71 "Hg (Jun 22, 6:20 PM)
Average69 °F63%30.06 "Hg
* Reported Jun 18 11:20 AM — Jul 3 11:20 AM, Mönchengladbach, Weather by CustomWeather, © 2015

Note: Actual official high and low records may vary slightly from our data, if they occured in-between our weather recording intervals... More about our weather records

Advertising

Mönchengladbach weather history for previous 24 hours

 ConditionsComfort  
Time TempWeatherWind HumidityBarometerVisibility
11:20 AM
Fri, Jul 3
81 °FPassing clouds.6 mph62%30.24 "HgN/A
10:50 AM79 °FPassing clouds.5 mph61%30.24 "HgN/A
10:20 AM77 °FPassing clouds.5 mph69%30.24 "HgN/A
9:50 AM75 °FSunny.3 mph74%30.24 "Hg10 mi
9:20 AM73 °FPassing clouds.5 mph78%30.24 "HgN/A
8:50 AM73 °FPassing clouds.5 mph78%30.24 "HgN/A
8:20 AM70 °FPassing clouds.7 mph88%30.24 "HgN/A
7:50 AM70 °FPassing clouds.7 mph88%30.24 "HgN/A
8:20 PM
Thu, Jul 2
86 °FClear.14 mph55%30.04 "Hg10 mi
7:50 PM88 °FClear.15 mph52%30.04 "Hg10 mi
7:20 PM95 °FPassing clouds.7 mph36%30.01 "HgN/A
6:50 PM95 °FClear.9 mph36%30.01 "Hg10 mi
6:20 PM95 °FPassing clouds.9 mph34%30.01 "HgN/A
5:50 PM97 °FPassing clouds.10 mph34%30.01 "HgN/A
5:20 PM99 °FPassing clouds.14 mph31%30.01 "HgN/A
4:50 PM97 °FPassing clouds.9 mph34%30.01 "HgN/A
4:20 PM97 °FPassing clouds.8 mph32%30.01 "HgN/A
3:50 PM99 °FPassing clouds.9 mph33%30.01 "HgN/A
3:20 PM97 °FPassing clouds.8 mph32%30.01 "HgN/A
2:50 PM97 °FPassing clouds.7 mph37%30.01 "HgN/A
2:20 PM95 °FPassing clouds.8 mph36%30.04 "HgN/A
1:50 PM93 °FPassing clouds.8 mph39%30.04 "HgN/A
1:20 PM93 °FPassing clouds.7 mph36%30.04 "HgN/A
12:50 PM91 °FPassing clouds.8 mph38%30.04 "HgN/A
12:20 PM91 °FSunny.10 mph41%30.04 "Hg10 mi
Weather by CustomWeather, © 2015

See weather overviewHow to use our weather pages